WW4HG Weather Reports


time (UTC)temp
C
wind
direction
speed
KPH
gust
KPH
rain 1hr
cm
rain 24hr
cm
rain mn
cm
humidity
%
barometer
mb
20260506015408 17 150 0.0 0.0 0.00 0.00 0.00 56 1017.7
20260506014905 17 136 0.0 0.0 0.00 0.00 0.00 56 1017.7
20260506014402 17 157 0.0 0.0 0.00 0.00 0.00 55 1017.3
20260506013858 17 164 0.0 0.0 0.00 0.00 0.00 55 1017.3
20260506013357 17 133 0.0 0.0 0.00 0.00 0.00 54 1017.3
20260506012852 17 164 0.0 0.0 0.00 0.00 0.00 54 1017.3
20260506012349 17 137 0.0 0.0 0.00 0.00 0.00 53 1017.3
20260506011846 18 142 0.0 0.0 0.00 0.00 0.00 53 1017.3
20260506011343 18 197 0.0 0.0 0.00 0.00 0.00 53 1017.3
20260506010840 18 120 0.0 0.0 0.00 0.00 0.00 52 1017.0
20260506010339 18 136 0.0 0.0 0.00 0.00 0.00 50 1017.3
20260506005835 18 139 0.0 0.0 0.00 0.00 0.00 50 1017.3
20260506005332 18 149 0.0 0.0 0.00 0.00 0.00 49 1017.7
20260506004828 18 139 0.0 0.0 0.00 0.00 0.00 49 1017.3
20260506004326 18 110 0.0 0.0 0.00 0.00 0.00 48 1017.3
20260506003821 19 94 0.0 0.0 0.00 0.00 0.00 48 1017.3
20260506003318 19 164 0.0 0.0 0.00 0.00 0.00 48 1017.3
20260506002814 19 130 0.0 0.0 0.00 0.00 0.00 48 1017.3
20260506002311 19 152 0.0 0.0 0.00 0.00 0.00 48 1017.3
20260506001807 19 118 0.0 0.0 0.00 0.00 0.00 47 1017.3
20260506001304 20 148 0.0 4.8 0.00 0.00 0.00 46 1017.7
20260506000801 20 81 0.0 0.0 0.00 0.00 0.00 46 1017.3
20260506000259 20 124 0.0 0.0 0.00 0.00 0.00 46 1017.3
20260505235755 20 113 0.0 4.8 0.00 0.00 0.00 46 1017.3
20260505235253 20 181 0.0 0.0 0.00 0.00 0.00 46 1017.3
20260505234749 20 156 0.0 0.0 0.00 0.00 0.00 46 1017.0
20260505234247 20 166 0.0 0.0 0.00 0.00 0.00 46 1017.3
20260505233743 20 100 0.0 0.0 0.00 0.00 0.00 44 1017.0
20260505233242 20 127 3.2 4.8 0.00 0.00 0.00 44 1017.3
20260505232739 20 83 0.0 0.0 0.00 0.00 0.00 44 1017.3
20260505232236 20 100 1.6 4.8 0.00 0.00 0.00 44 1016.7
20260505231732 20 153 0.0 0.0 0.00 0.00 0.00 44 1017.0
20260505231232 21 109 6.4 11.3 0.00 0.00 0.00 44 1017.0
20260505230729 21 109 4.8 8.0 0.00 0.00 0.00 44 1017.0
20260505230226 21 115 8.0 11.3 0.00 0.00 0.00 44 1017.0
20260505225722 21 129 1.6 4.8 0.00 0.00 0.00 44 1017.0
20260505225219 21 130 0.0 0.0 0.00 0.00 0.00 44 1017.0
20260505224715 21 74 4.8 8.0 0.00 0.00 0.00 44 1017.0
20260505224213 21 154 0.0 4.8 0.00 0.00 0.00 43 1017.3
20260505223710 21 190 0.0 0.0 0.00 0.00 0.00 43 1017.0
20260505223206 21 151 3.2 4.8 0.00 0.00 0.00 42 1017.3
20260505222702 21 113 0.0 4.8 0.00 0.00 0.00 42 1017.3
20260505222158 21 175 8.0 11.3 0.00 0.00 0.00 42 1017.0
20260505221656 21 122 3.2 8.0 0.00 0.00 0.00 41 1017.0
20260505221152 21 121 0.0 0.0 0.00 0.00 0.00 41 1017.3
20260505220649 21 127 3.2 8.0 0.00 0.00 0.00 41 1017.3
20260505220147 21 162 0.0 0.0 0.00 0.00 0.00 41 1017.3
20260505215644 22 145 3.2 8.0 0.00 0.00 0.00 41 1017.0
20260505215142 22 114 4.8 8.0 0.00 0.00 0.00 41 1017.3
20260505214640 22 121 6.4 11.3 0.00 0.00 0.00 40 1017.3
20260505214137 22 146 4.8 8.0 0.00 0.00 0.00 40 1017.0
20260505213634 22 72 3.2 4.8 0.00 0.00 0.00 40 1017.0
20260505213131 22 173 0.0 0.0 0.00 0.00 0.00 40 1017.0
20260505212627 22 135 0.0 0.0 0.00 0.00 0.00 40 1017.0
20260505212125 22 109 4.8 16.1 0.00 0.00 0.00 40 1017.0
20260505211621 22 135 1.6 4.8 0.00 0.00 0.00 40 1017.0
20260505211119 22 130 0.0 0.0 0.00 0.00 0.00 40 1017.3
20260505210615 22 165 0.0 0.0 0.00 0.00 0.00 40 1017.3
20260505210112 22 109 9.7 16.1 0.00 0.00 0.00 40 1017.3
20260505205610 22 111 0.0 0.0 0.00 0.00 0.00 40 1017.0
20260505205107 22 95 8.0 11.3 0.00 0.00 0.00 40 1017.3
20260505204604 22 183 1.6 4.8 0.00 0.00 0.00 40 1017.0
20260505204102 22 69 4.8 8.0 0.00 0.00 0.00 39 1017.3
20260505203558 22 143 0.0 0.0 0.00 0.00 0.00 39 1017.0
20260505203055 22 141 4.8 8.0 0.00 0.00 0.00 39 1017.0
20260505202551 22 80 0.0 0.0 0.00 0.00 0.00 39 1017.0
20260505202047 22 109 9.7 11.3 0.00 0.00 0.00 40 1017.3
20260505201544 22 83 4.8 8.0 0.00 0.00 0.00 39 1017.3
20260505201042 22 141 3.2 4.8 0.00 0.00 0.00 39 1017.3
20260505200540 23 149 1.6 4.8 0.00 0.00 0.00 39 1017.3
20260505200036 23 157 11.3 19.3 0.00 0.00 0.00 39 1017.3
20260505195532 23 136 6.4 8.0 0.00 0.00 0.00 39 1017.3
20260505195030 23 109 4.8 11.3 0.00 0.00 0.00 38 1017.7
20260505194527 23 90 11.3 16.1 0.00 0.00 0.00 38 1018.0
20260505194022 23 189 8.0 11.3 0.00 0.00 0.00 38 1018.0
20260505193520 23 151 6.4 8.0 0.00 0.00 0.00 38 1018.0
20260505193017 23 151 6.4 8.0 0.00 0.00 0.00 38 1018.0
20260505192516 23 154 0.0 0.0 0.00 0.00 0.00 38 1018.4
20260505192013 23 120 4.8 8.0 0.00 0.00 0.00 38 1018.0
20260505191511 23 89 0.0 0.0 0.00 0.00 0.00 39 1018.4
20260505191008 23 154 6.4 8.0 0.00 0.00 0.00 39 1018.4
20260505190503 23 132 0.0 0.0 0.00 0.00 0.00 39 1018.4
20260505185959 23 95 0.0 0.0 0.00 0.00 0.00 39 1018.4
20260505185456 23 48 6.4 8.0 0.00 0.00 0.00 39 1018.4
20260505184952 23 84 8.0 11.3 0.00 0.00 0.00 39 1018.4
20260505184449 23 145 4.8 8.0 0.00 0.00 0.00 39 1018.4
20260505183945 23 149 4.8 11.3 0.00 0.00 0.00 39 1018.0
20260505183443 23 162 6.4 8.0 0.00 0.00 0.00 39 1018.4
20260505182939 23 119 8.0 11.3 0.00 0.00 0.00 40 1018.4
20260505182437 23 99 0.0 0.0 0.00 0.00 0.00 39 1018.4
20260505181932 23 141 0.0 4.8 0.00 0.00 0.00 39 1018.0
20260505181430 23 109 1.6 4.8 0.00 0.00 0.00 39 1018.0
20260505180927 23 49 12.9 19.3 0.00 0.00 0.00 40 1018.4
20260505180423 23 74 11.3 11.3 0.00 0.00 0.00 40 1018.4
20260505175920 23 123 3.2 4.8 0.00 0.00 0.00 39 1018.4
20260505175416 23 341 3.2 8.0 0.00 0.00 0.00 39 1018.4
20260505174912 23 109 1.6 4.8 0.00 0.00 0.00 39 1018.0
20260505174410 23 109 0.0 4.8 0.00 0.00 0.00 39 1018.4
20260505173906 23 122 0.0 0.0 0.00 0.00 0.00 38 1018.4
20260505173402 23 109 0.0 0.0 0.00 0.00 0.00 39 1018.4
20260505172900 23 128 1.6 4.8 0.00 0.00 0.00 38 1018.4
20260505172357 23 83 8.0 11.3 0.00 0.00 0.00 38 1018.4
20260505171857 23 44 9.7 11.3 0.00 0.00 0.00 39 1018.7
20260505171354 23 294 0.0 0.0 0.00 0.00 0.00 38 1018.4
20260505170850 24 128 0.0 4.8 0.00 0.00 0.00 37 1018.7
20260505170348 23 215 0.0 0.0 0.00 0.00 0.00 38 1019.0
20260505165842 23 60 1.6 4.8 0.00 0.00 0.00 38 1019.0
20260505165339 23 181 0.0 0.0 0.00 0.00 0.00 39 1019.0
20260505164834 23 142 0.0 0.0 0.00 0.00 0.00 39 1019.0
20260505164331 23 67 6.4 8.0 0.00 0.00 0.00 38 1019.0
20260505163829 23 169 0.0 4.8 0.00 0.00 0.00 38 1019.4
20260505163328 23 154 0.0 0.0 0.00 0.00 0.00 38 1019.4
20260505162826 23 115 4.8 8.0 0.00 0.00 0.00 39 1019.4
20260505162322 23 120 0.0 0.0 0.00 0.00 0.00 39 1019.4
20260505161819 23 31 1.6 4.8 0.00 0.00 0.00 41 1019.7
20260505161316 23 177 0.0 0.0 0.00 0.00 0.00 40 1019.4
20260505160814 23 109 0.0 4.8 0.00 0.00 0.00 40 1019.4
20260505160312 23 137 0.0 0.0 0.00 0.00 0.00 40 1019.4
20260505153250 23 70 0.0 0.0 0.00 0.00 0.00 42 1019.4
20260505152747 23 35 0.0 4.8 0.00 0.00 0.00 42 1019.4
20260505152244 23 140 0.0 0.0 0.00 0.00 0.00 41 1019.7
20260505151738 23 127 0.0 0.0 0.00 0.00 0.00 42 1019.4
20260505151236 23 109 3.2 4.8 0.00 0.00 0.00 41 1019.7
20260505150732 23 188 0.0 0.0 0.00 0.00 0.00 42 1019.7
20260505150230 23 126 0.0 0.0 0.00 0.00 0.00 42 1019.7
20260505140154 22 125 0.0 0.0 0.00 0.00 0.00 47 1019.7
20260505130118 20 178 0.0 0.0 0.00 0.00 0.00 51 1019.7
20260505124607 19 115 0.0 0.0 0.00 0.00 0.00 54 1019.4
20260505124103 19 145 0.0 0.0 0.00 0.00 0.00 55 1019.7
20260505123600 18 109 0.0 0.0 0.00 0.00 0.00 56 1019.4
20260505123056 18 0 0.0 0.0 0.00 0.00 0.00 52 1019.4
20260505122553 17 0 0.0 0.0 0.00 0.00 0.00 54 1019.4
20260505122050 17 0 0.0 0.0 0.00 0.00 0.00 56 1019.7
20260505121547 16 0 0.0 0.0 0.00 0.00 0.00 57 1019.4
20260505121044 15 0 0.0 0.0 0.00 0.00 0.00 62 1019.4
20260505120540 15 0 0.0 0.0 0.00 0.00 0.00 66 1019.4
20260505120036 13 0 0.0 0.0 0.00 0.00 0.00 71 1019.4
20260505115530 13 0 0.0 0.0 0.00 0.00 0.00 75 1019.4
20260505115028 13 0 0.0 0.0 0.00 0.00 0.00 78 1019.4
20260505114525 12 0 0.0 0.0 0.00 0.00 0.00 81 1019.4
20260505114022 11 0 0.0 0.0 0.00 0.00 0.00 83 1019.4
20260505113518 11 0 0.0 0.0 0.00 0.00 0.00 84 1019.4
20260505113015 10 0 0.0 0.0 0.00 0.00 0.00 84 1019.4
20260505112511 10 0 0.0 0.0 0.00 0.00 0.00 84 1019.0
20260505112009 10 0 0.0 0.0 0.00 0.00 0.00 84 1019.0
20260505111502 10 0 0.0 0.0 0.00 0.00 0.00 84 1019.0
20260505110959 9 0 0.0 0.0 0.00 0.00 0.00 85 1019.4
20260505110455 9 0 0.0 0.0 0.00 0.00 0.00 85 1019.0
20260505101927 10 0 0.0 0.0 0.00 0.00 0.00 84 1018.4
20260505101421 10 0 0.0 0.0 0.00 0.00 0.00 84 1018.4
20260505100917 10 0 0.0 0.0 0.00 0.00 0.00 84 1018.4
20260505100414 10 0 0.0 0.0 0.00 0.00 0.00 84 1018.4
20260505095910 10 0 0.0 0.0 0.00 0.00 0.00 84 1018.0
20260505095407 10 0 0.0 0.0 0.00 0.00 0.00 84 1018.0
20260505094903 10 0 0.0 0.0 0.00 0.00 0.00 83 1018.0
20260505094400 10 0 0.0 0.0 0.00 0.00 0.00 83 1018.0
20260505093856 10 0 0.0 0.0 0.00 0.00 0.00 83 1018.0
20260505093353 10 0 0.0 0.0 0.00 0.00 0.00 83 1017.7
20260505092850 10 0 0.0 0.0 0.00 0.00 0.00 83 1018.0
20260505092348 10 0 0.0 0.0 0.00 0.00 0.00 83 1018.0
20260505091845 10 0 0.0 0.0 0.00 0.00 0.00 83 1017.7
20260505091343 10 0 0.0 0.0 0.00 0.00 0.00 83 1018.0
20260505090841 10 0 0.0 0.0 0.00 0.00 0.00 83 1017.7
20260505090339 10 0 0.0 0.0 0.00 0.00 0.00 83 1017.7
20260505085836 10 0 0.0 0.0 0.00 0.00 0.00 82 1017.7
20260505085334 10 0 0.0 0.0 0.00 0.00 0.00 82 1017.7
20260505084831 10 0 0.0 0.0 0.00 0.00 0.00 82 1017.7
20260505084330 10 0 0.0 0.0 0.00 0.00 0.00 82 1017.7
20260505083826 10 0 0.0 0.0 0.00 0.00 0.00 81 1017.3
20260505083324 10 0 0.0 0.0 0.00 0.00 0.00 81 1017.3
20260505082820 10 0 0.0 0.0 0.00 0.00 0.00 81 1017.3
20260505082317 10 0 0.0 0.0 0.00 0.00 0.00 81 1017.7
20260505081814 10 0 0.0 0.0 0.00 0.00 0.00 81 1017.3
20260505081310 10 0 0.0 0.0 0.00 0.00 0.00 80 1017.7
20260505080807 10 0 0.0 0.0 0.00 0.00 0.00 80 1017.3
20260505080303 10 0 0.0 0.0 0.00 0.00 0.00 80 1017.3
20260505075758 10 0 0.0 0.0 0.00 0.00 0.00 80 1017.3
20260505075256 10 0 0.0 0.0 0.00 0.00 0.00 80 1017.3
20260505074753 11 0 0.0 0.0 0.00 0.00 0.00 80 1017.3
20260505074250 11 0 0.0 0.0 0.00 0.00 0.00 80 1017.3
20260505073748 11 0 0.0 0.0 0.00 0.00 0.00 80 1017.0
20260505073245 11 0 0.0 0.0 0.00 0.00 0.00 80 1017.0
20260505072742 11 0 0.0 0.0 0.00 0.00 0.00 79 1017.0
20260505072238 11 0 0.0 0.0 0.00 0.00 0.00 79 1017.3
20260505071734 11 0 0.0 0.0 0.00 0.00 0.00 79 1017.3
20260505071231 11 0 0.0 0.0 0.00 0.00 0.00 79 1017.3
20260505070728 11 0 0.0 0.0 0.00 0.00 0.00 79 1017.0
20260505070224 11 0 0.0 0.0 0.00 0.00 0.00 78 1017.3
20260505065720 11 0 0.0 0.0 0.00 0.00 0.00 78 1017.0
20260505065217 11 0 0.0 0.0 0.00 0.00 0.00 78 1017.0
20260505064714 11 0 0.0 0.0 0.00 0.00 0.00 78 1017.3
20260505064212 11 0 0.0 0.0 0.00 0.00 0.00 77 1017.3
20260505063709 11 0 0.0 0.0 0.00 0.00 0.00 77 1017.7
20260505063205 11 0 0.0 0.0 0.00 0.00 0.00 77 1017.3
20260505062701 11 0 0.0 0.0 0.00 0.00 0.00 76 1017.7
20260505062200 11 0 0.0 0.0 0.00 0.00 0.00 76 1017.7
20260505061656 11 0 0.0 0.0 0.00 0.00 0.00 76 1017.7
20260505061154 11 0 0.0 0.0 0.00 0.00 0.00 76 1017.7
20260505060651 11 0 0.0 0.0 0.00 0.00 0.00 74 1017.7
20260505060148 11 0 0.0 0.0 0.00 0.00 0.00 74 1018.0
20260505055643 11 0 0.0 0.0 0.00 0.00 0.00 74 1018.0
20260505055140 11 0 0.0 0.0 0.00 0.00 0.00 73 1018.0
20260505054638 11 0 0.0 0.0 0.00 0.00 0.00 74 1018.0
20260505054136 11 0 0.0 0.0 0.00 0.00 0.00 73 1018.4
20260505053633 11 0 0.0 0.0 0.00 0.00 0.00 73 1018.4
20260505053129 11 0 0.0 0.0 0.00 0.00 0.00 72 1018.0
20260505052626 11 0 0.0 0.0 0.00 0.00 0.00 72 1018.4
20260505052124 11 0 0.0 0.0 0.00 0.00 0.00 72 1018.4
20260505051621 11 0 0.0 0.0 0.00 0.00 0.00 71 1018.4
20260505051119 11 0 0.0 0.0 0.00 0.00 0.00 71 1018.4
20260505050616 11 0 0.0 0.0 0.00 0.00 0.00 71 1018.4
20260505050114 11 0 0.0 0.0 0.00 0.00 0.00 70 1018.7
20260505041544 12 0 0.0 0.0 0.00 0.00 0.00 66 1018.4
20260505041041 12 0 0.0 0.0 0.00 0.00 0.00 65 1018.4
20260505040538 12 0 0.0 0.0 0.00 0.00 0.00 65 1018.4
20260505040036 12 0 0.0 0.0 0.00 0.00 0.00 64 1018.7
20260505035531 12 0 0.0 0.0 0.00 0.00 0.00 64 1018.7
20260505035028 12 0 0.0 0.0 0.00 0.00 0.00 64 1018.4
20260505034525 12 0 0.0 0.0 0.00 0.00 0.00 64 1018.7
20260505034022 13 0 0.0 0.0 0.00 0.00 0.00 63 1018.4
20260505033519 13 0 0.0 0.0 0.00 0.00 0.00 63 1018.7
20260505033017 13 0 0.0 0.0 0.00 0.00 0.00 63 1018.4
20260505032514 13 0 0.0 0.0 0.00 0.00 0.00 62 1018.4
20260505032010 13 0 0.0 0.0 0.00 0.00 0.00 61 1018.7
20260505031508 13 0 0.0 0.0 0.00 0.00 0.00 60 1018.4
20260505031004 13 0 0.0 0.0 0.00 0.00 0.00 60 1018.4
20260505030501 14 0 0.0 0.0 0.00 0.00 0.00 59 1018.4
20260505025956 14 0 0.0 0.0 0.00 0.00 0.00 58 1018.4
20260505025453 14 0 0.0 0.0 0.00 0.00 0.00 57 1018.4
20260505024952 15 0 0.0 0.0 0.00 0.00 0.00 56 1018.4
20260505024449 15 0 0.0 0.0 0.00 0.00 0.00 55 1018.4
20260505023946 15 0 0.0 0.0 0.00 0.00 0.00 55 1018.4
20260505023443 15 0 0.0 0.0 0.00 0.00 0.00 54 1018.7
20260505022940 15 0 0.0 0.0 0.00 0.00 0.00 54 1018.4
20260505022438 15 0 0.0 0.0 0.00 0.00 0.00 53 1018.4
20260505021935 15 0 0.0 0.0 0.00 0.00 0.00 53 1018.4
20260505021431 15 0 0.0 0.0 0.00 0.00 0.00 53 1018.4
20260505020927 16 0 0.0 0.0 0.00 0.00 0.00 52 1018.4
20260505020422 16 0 0.0 0.0 0.00 0.00 0.00 52 1018.4
20260505015919 16 0 0.0 0.0 0.00 0.00 0.00 52 1018.4